Location: Alexo
(52.4665°N, 115.7844°W)
Time: 06:26:43
(UTC+00:00)

Envisat - Visible Passes

Search period start: 28 November 2021 00:00
Search period end: 08 December 2021 00:00
Orbit: 764 x 766 km, 98.2° (Epoch: 27 November)

Date Brightness Start Highest point End Pass type
(mag) Time Alt. Az. Time Alt. Az. Time Alt. Az.
28 Nov 4.9 00:34:07 10° SSW 00:38:42 34° W 00:43:19 10° NNW visible
28 Nov 3.6 12:36:14 10° NNE 12:41:15 56° E 12:46:14 10° S visible
28 Nov 3.8 14:15:44 10° N 14:20:00 28° WNW 14:24:15 10° WSW visible
29 Nov 6.3 01:40:23 10° W 01:41:40 11° W 01:42:58 10° WNW visible
29 Nov 4.9 11:59:43 10° NNE 12:04:09 29° E 12:08:32 10° SSE visible
29 Nov 3.1 13:38:29 10° N 13:43:24 50° WNW 13:48:17 10° SW visible
30 Nov 5.7 01:00:23 10° SW 01:04:16 22° W 01:08:10 10° NW visible
30 Nov 5.8 11:23:53 10° NE 11:26:50 15° E 11:29:45 10° ESE visible
30 Nov 2.9 13:01:29 10° NNE 13:06:37 88° ESE 13:11:42 10° SSW visible
30 Nov 4.3 14:41:31 10° N 14:45:01 19° NW 14:48:30 10° W visible
01 Dec 4.5 00:22:17 10° SSW 00:27:04 41° W 00:31:53 10° NNW visible
01 Dec 4.0 12:24:44 10° NNE 12:29:39 45° E 12:34:31 10° S visible
01 Dec 3.6 14:04:02 10° N 14:08:33 33° WNW 14:13:03 10° SW visible
02 Dec 6.0 01:27:25 10° WSW 01:29:56 14° W 01:32:27 10° NW visible
02 Dec 5.2 11:48:22 10° NE 11:52:28 24° E 11:56:33 10° SE visible
02 Dec 3.0 13:26:52 10° N 13:31:53 60° WNW 13:36:53 10° SSW visible
03 Dec 5.4 00:48:21 10° SSW 00:52:35 26° W 00:56:51 10° NW visible
03 Dec 6.0 11:13:03 10° ENE 11:15:06 12° E 11:17:08 10° ESE visible
03 Dec 3.2 12:49:57 10° NNE 12:55:03 73° ESE 13:00:07 10° S visible
03 Dec 4.1 14:29:43 10° N 14:33:36 22° WNW 14:37:28 10° WSW visible
04 Dec 4.1 00:10:31 10° S 00:15:26 50° W 00:20:24 10° NNW visible
04 Dec 4.4 12:13:17 10° NNE 12:18:01 37° E 12:22:43 10° SSE visible
04 Dec 3.4 13:52:22 10° N 13:57:04 39° WNW 14:01:46 10° SW visible
05 Dec 5.9 01:14:58 10° SW 01:18:12 17° W 01:21:27 10° NW visible
05 Dec 5.4 11:37:05 10° NE 11:40:47 20° E 11:44:27 10° SE visible
05 Dec 2.9 13:15:16 10° NNE 13:20:22 73° WNW 13:25:25 10° SSW visible
05 Dec 4.5 14:55:40 10° NNW 14:58:34 15° NW 15:01:28 10° W visible
06 Dec 5.0 00:36:24 10° SSW 00:40:55 32° W 00:45:28 10° NNW visible
06 Dec 3.5 12:38:25 10° NNE 12:43:28 59° ESE 12:48:28 10° S visible
06 Dec 3.9 14:17:59 10° N 14:22:10 26° WNW 14:26:20 10° WSW visible
07 Dec 6.4 01:43:32 10° W 01:43:56 10° W 01:44:20 10° WNW visible
07 Dec 4.7 12:01:51 10° NNE 12:06:22 31° E 12:10:50 10° SSE visible
07 Dec 3.2 13:40:42 10° N 13:45:35 47° WNW 13:50:26 10° SW visible
